Zim Luanda — 9HA2029 — position and weather

sailwx.info

Track history (hours):
 
Tides and Currents Weather Stations Pressure Air Temp Water Temp Dewpoint Dewpoint Depression Visibility Wind Speed Wind Dir Waves Ship Positions

Zim Luanda

Last reported at 2014-Jul-24 05:28 UTC. Time now 2014-Jul-30 03:00 UTC.
Position N 32°06' W 081°01'.

Length 260 m; draft 10.8 m.

Type: Ship (hazmat cat A). MMSI: 249830000.

Date/timePositionNaut miles runAvg speedWind from/ knotsBaromVisibWave heightAir tempDewpointWater temp
2014-Jul-24 05:28N 32°06' W 081°01'6 6.2
2014-Jul-24 04:32N 32°07' W 081°07'1 0.7
2014-Jul-24 03:30N 32°07' W 081°08'0 0.0
2014-Jul-24 02:27N 32°07' W 081°08'0 0.0
2014-Jul-24 01:30N 32°07' W 081°08'0 0.0
2014-Jul-24 00:30N 32°07' W 081°08'0 0.0
2014-Jul-23 23:27N 32°07' W 081°08'0 0.0
2014-Jul-23 22:33N 32°07' W 081°08'0 0.0
2014-Jul-23 21:33N 32°07' W 081°08'0 0.0
2014-Jul-23 19:24N 32°07' W 081°08'0 0.0
2014-Jul-23 18:30N 32°07' W 081°08'0 0.0
2014-Jul-23 17:33N 32°07' W 081°08'0 0.0
2014-Jul-23 16:33N 32°07' W 081°08'0 0.0
2014-Jul-23 15:31N 32°07' W 081°08'0 0.0
2014-Jul-23 14:34N 32°07' W 081°08'0 0.0
2014-Jul-23 13:30N 32°07' W 081°08'0 0.2
2014-Jul-23 12:33N 32°07' W 081°08'4 3.8
2014-Jul-23 11:33N 32°05' W 081°05'6 6.2
2014-Jul-23 10:33N 32°04' W 080°57'1010.2
2014-Jul-23 09:33N 31°60' W 080°47'49712.7
2014-Jul-21 18:31N 38°07' W 073°58'1617.0
2014-Jul-21 17:33N 38°23' W 073°55'1716.5
2014-Jul-21 16:33N 38°40' W 073°52'1616.2
2014-Jul-21 15:33N 38°56' W 073°52'1716.5
2014-Jul-21 14:33N 39°12' W 073°52'1716.4
2014-Jul-21 13:33N 39°29' W 073°52'1616.2
2014-Jul-21 12:33N 39°45' W 073°52'1616.3
2014-Jul-21 11:33N 40°01' W 073°51'2914.3
2014-Jul-21 09:32N 40°30' W 073°56'1212.1
2014-Jul-21 08:34N 40°39' W 074°06'3 3.3
2014-Jul-21 07:33N 40°41' W 074°09'0 0.0
2014-Jul-21 06:31N 40°41' W 074°09'0 0.0
2014-Jul-21 05:31N 40°41' W 074°09'0 0.0
2014-Jul-21 04:31N 40°41' W 074°09'0 0.0
2014-Jul-21 03:25N 40°41' W 074°09'0 0.0
2014-Jul-21 02:31N 40°41' W 074°09'0 0.0
2014-Jul-21 01:25N 40°41' W 074°09'0 0.0
2014-Jul-20 23:16N 40°41' W 074°09'0 0.0
2014-Jul-20 20:07N 40°41' W 074°09'0 0.0
2014-Jul-20 18:31N 40°41' W 074°09'0 0.0
2014-Jul-20 17:31N 40°41' W 074°09'0 0.0
2014-Jul-20 16:31N 40°41' W 074°09'0 0.0
2014-Jul-20 15:31N 40°41' W 074°09'0 0.0
2014-Jul-20 14:33N 40°41' W 074°09'4 4.4
2014-Jul-20 13:33N 40°39' W 074°04'1010.2
2014-Jul-20 12:33N 40°30' W 073°57'2912.2
2014-Jul-20 10:10N 40°29' W 073°18'1016.1
2014-Jul-20 09:32N 40°30' W 073°05'1616.1
2014-Jul-20 08:33N 40°30' W 072°44'1616.0
2014-Jul-20 07:33N 40°31' W 072°23'2015.9
2014-Jul-20 06:17N 40°31' W 071°57'  
Track history (hours):
 
Tides and Currents Weather Stations Pressure Air Temp Water Temp Dewpoint Dewpoint Depression Visibility Wind Speed Wind Dir Waves Ship Positions

Zim Luanda

Last reported at 2014-Jul-24 05:28 UTC. Time now 2014-Jul-30 03:00 UTC.
Position N 32°06' W 081°01'.

Length 260 m; draft 10.8 m.

Type: Ship (hazmat cat A). MMSI: 249830000.

Date/timePositionNaut miles runAvg speedWind from/ knotsBaromVisibWave heightAir tempDewpointWater temp
2014-Jul-24 05:28N 32°06' W 081°01'6 6.2
2014-Jul-24 04:32N 32°07' W 081°07'1 0.7
2014-Jul-24 03:30N 32°07' W 081°08'0 0.0
2014-Jul-24 02:27N 32°07' W 081°08'0 0.0
2014-Jul-24 01:30N 32°07' W 081°08'0 0.0
2014-Jul-24 00:30N 32°07' W 081°08'0 0.0
2014-Jul-23 23:27N 32°07' W 081°08'0 0.0
2014-Jul-23 22:33N 32°07' W 081°08'0 0.0
2014-Jul-23 21:33N 32°07' W 081°08'0 0.0
2014-Jul-23 19:24N 32°07' W 081°08'0 0.0
2014-Jul-23 18:30N 32°07' W 081°08'0 0.0
2014-Jul-23 17:33N 32°07' W 081°08'0 0.0
2014-Jul-23 16:33N 32°07' W 081°08'0 0.0
2014-Jul-23 15:31N 32°07' W 081°08'0 0.0
2014-Jul-23 14:34N 32°07' W 081°08'0 0.0
2014-Jul-23 13:30N 32°07' W 081°08'0 0.2
2014-Jul-23 12:33N 32°07' W 081°08'4 3.8
2014-Jul-23 11:33N 32°05' W 081°05'6 6.2
2014-Jul-23 10:33N 32°04' W 080°57'1010.2
2014-Jul-23 09:33N 31°60' W 080°47'49712.7
2014-Jul-21 18:31N 38°07' W 073°58'1617.0
2014-Jul-21 17:33N 38°23' W 073°55'1716.5
2014-Jul-21 16:33N 38°40' W 073°52'1616.2
2014-Jul-21 15:33N 38°56' W 073°52'1716.5
2014-Jul-21 14:33N 39°12' W 073°52'1716.4
2014-Jul-21 13:33N 39°29' W 073°52'1616.2
2014-Jul-21 12:33N 39°45' W 073°52'1616.3
2014-Jul-21 11:33N 40°01' W 073°51'2914.3
2014-Jul-21 09:32N 40°30' W 073°56'1212.1
2014-Jul-21 08:34N 40°39' W 074°06'3 3.3
2014-Jul-21 07:33N 40°41' W 074°09'0 0.0
2014-Jul-21 06:31N 40°41' W 074°09'0 0.0
2014-Jul-21 05:31N 40°41' W 074°09'0 0.0
2014-Jul-21 04:31N 40°41' W 074°09'0 0.0
2014-Jul-21 03:25N 40°41' W 074°09'0 0.0
2014-Jul-21 02:31N 40°41' W 074°09'0 0.0
2014-Jul-21 01:25N 40°41' W 074°09'0 0.0
2014-Jul-20 23:16N 40°41' W 074°09'0 0.0
2014-Jul-20 20:07N 40°41' W 074°09'0 0.0
2014-Jul-20 18:31N 40°41' W 074°09'0 0.0
2014-Jul-20 17:31N 40°41' W 074°09'0 0.0
2014-Jul-20 16:31N 40°41' W 074°09'0 0.0
2014-Jul-20 15:31N 40°41' W 074°09'0 0.0
2014-Jul-20 14:33N 40°41' W 074°09'4 4.4
2014-Jul-20 13:33N 40°39' W 074°04'1010.2
2014-Jul-20 12:33N 40°30' W 073°57'2912.2
2014-Jul-20 10:10N 40°29' W 073°18'1016.1
2014-Jul-20 09:32N 40°30' W 073°05'1616.1
2014-Jul-20 08:33N 40°30' W 072°44'1616.0
2014-Jul-20 07:33N 40°31' W 072°23'2015.9
2014-Jul-20 06:17N 40°31' W 071°57'  

Dump ship's entire track history